Regional Weather Roundup
Issued by NWS Kansas City/Pleasant Hill, MO

Home | Current Version | Previous Version | Graphics & Text | Print | Product List | Glossary Off
Versions: 1 2 3 4 5 6 7 8 9 10 11 12 13 14 15 16 17 18 19 20 21 22 23 24 25 26 27 28 29 30 31 32 33 34 35 36 37 38 39 40 41 42 43 44 45 46 47 48 49 50

285
ASUS43 KEAX 270910
RWREAX

WEATHER ROUNDUP FOR EASTERN KANSAS AND NORTHWEST MISSOURI
NATIONAL WEATHER SERVICE KANSAS CITY/PLEASANT HILL MO
400 AM CDT MON MAR 27 2017

KSZ040-057-103>105-MOZ028-029-037-043-271000-
...KANSAS CITY METROPOLITAN AREA...

CITY           SKY/WX    TMP DP  RH WIND       PRES   REMARKS
K.C. INTL      DRIZZLE   46  45  96 NE13      29.82F
K.C. DOWNTOWN  MOCLDY    47  45  93 NE9       29.81S
LEES SUMMIT    MOCLDY    47  46  97 NE18      29.80F
OLATHE - IXD   CLOUDY    47  45  93 NE13G23   29.80F
OLATHE - OJC   CLOUDY    46  46 100 NE13G18   29.79F
LAWRENCE       CLOUDY    47  46  97 N6        29.84R

$$

MOZ001>008-011>017-020>025-030>033-038>040-044>046-053-054-271000-
...NORTHERN AND CENTRAL MISSOURI...

CITY           SKY/WX    TMP DP  RH WIND       PRES   REMARKS
ST. JOSEPH     LGT RAIN  46  45  96 NE10      29.87F
MOSBY          CLOUDY    46  45  93 E12       29.84F
WARRENSBURG    RAIN      46  45  93 NE7       29.84F
WHITEMAN AFB   NOT AVBL
CLINTON        CLOUDY    50  50 100 NE7       29.83F
SEDALIA        CLOUDY    50  48  93 NE10      29.84F
WARSAW         NOT AVBL
CHILLICOTHE      N/A     47  45  93 CALM      29.91S
KIRKSVILLE     CLOUDY    46  44  93 NE3       29.88F

$$

MOZ041-047>049-056>058-063>065-088>090-097-271000-
...EASTERN AND SOUTHERN MISSOURI...

CITY           SKY/WX    TMP DP  RH WIND       PRES   REMARKS
ST. LOUIS INTL CLOUDY    52  48  86 NE5       29.88F
SPIRIT OF STL  CLOUDY    49  49 100 E3        29.86F
COLUMBIA       LGT RAIN  49  49 100 NE7       29.86F
JEFFERSON CITY LGT RAIN  54  49  83 VRB5      29.85F
ROLLA          LGT RAIN  52  50  93 S3        29.84F
OSAGE BEACH    LGT RAIN N/A N/A N/A NE8       29.83F
SPRINGFIELD    LGT RAIN  56  53  90 W9        29.82R
BRANSON        CLOUDY    55  55 100 S3        29.78S
JOPLIN         LGT RAIN  56  56 100 VRB3      29.77S
WEST PLAINS    RAIN      55  53  93 CALM      29.87S FOG

$$

IAZ060-094-KSZ022-034>040-054-083-096-NEZ052-066-093-271000-
...KANSAS...SOUTHEAST NEBRASKA AND IOWA...

CITY           SKY/WX    TMP DP  RH WIND       PRES   REMARKS
TOPEKA         RAIN      46  46 100 N7        29.85S FOG
MANHATTAN      LGT RAIN  47  45  93 N6        29.89R FOG
EMPORIA        CLOUDY    47  47 100 N8        29.83S FOG
CHANUTE        CLOUDY    51  49  92 NW8       29.80R
WICHITA        CLOUDY    48  47  96 NW12      29.85R
OMAHA          CLOUDY    46  41  82 N3        29.93S
LINCOLN        CLOUDY    45  42  89 N8        29.94S
FALLS CITY     CLOUDY    47  44  90 N8        29.88S
LAMONI         CLOUDY    45  43  93 NE5       29.89F
DES MOINES     FOG       45  43  93 N7        29.91F VSB 1

$$





USA.gov is the U.S. government's official web portal to all federal, state and local government web resources and services.